OneWeb SL0406

operational
NORAD ID: 50486 Int'l Des: 2021-132 Owner: ONEWEBN Country: UK Constellation: oneweb
LEOCIRCULARPOLARONEWEB_TYPE

OneWeb SL0406について

説明を読み込み中...

リアルタイム位置

3D地球を読み込み中...

次回通過

高度履歴

Altitude vs Time

uPlot chart will show altitude changes over time

軌道要素

1 50486U 21132T 25296.23615490 .00000102 00000-0 22689-3 0 9999
2 50486 87.9234 22.5171 0001953 85.8964 274.2391 13.18685817190392
Epoch: Oct 23, 2025 • Age: 24 hours

現在のステータス

高度 1191.8 km
速度 7.26 km/s
衛星直下点 16.77°N, 76.3°E
打ち上げ日 Dec 27, 2021
運用期間 3.8 years
タイプ internet

技術仕様

分類 Payload
質量 148.00 kg
乾燥質量 140.00 kg
総質量 148.00 kg
長さ 1.30 m
直径 1.00 m
スパン 5.00 m
形状 Trapezoid+2 pan
製造者 ONEWUS
バスタイプ ARROW
フェーズステータス In Orbit
所有者/国 ONEWEBN/UK

大規模コンステレーション

Loading constellations...